Claresholm, Alberta

10:26 PM MST on November 18, 2017 (GMT -0700)
Claresholm

Weather History for CWDK - September, 2013

Change the Weather History Date:

Monday, September 9, 2013

  Actual Average Record
Temperature  
Mean Temperature 64 °F -  
Max Temperature 78 °F - - ()
Min Temperature 50 °F - - ()
Degree Days  
Heating Degree Days 1    
Growing Degree Days 14 (Base 50)    
Moisture  
Dew Point 49 °F    
Average Humidity 60    
Maximum Humidity 87    
Minimum Humidity 29    
Precipitation  
Precipitation 0.00 in - - ()
Sea Level Pressure  
Sea Level Pressure 29.90 in    
Wind  
Wind Speed 6 mph ()    
Max Wind Speed 17 mph    
Max Gust Speed 26 mph    
T = Trace of Precipitation, MM = Missing Value Source: Averaged Metar Reports

Daily Weather History Graph

Daily Weather History Graph

Search for Another Location

Airport or City:

Trip Planner

Search our weather history database for the weather conditions in past years. The results will help you decide how hot, cold, wet, or windy it might be!

Date:

Astronomy

Sep. 09, 2013 Rise Set
Actual Time 7:01 AM MDT 8:00 PM MDT
Civil Twilight 6:29 AM MDT 8:33 PM MDT
Nautical Twilight 5:49 AM MDT 9:12 PM MDT
Astronomical Twilight 5:07 AM MDT 9:54 PM MDT
Moon 11:58 AM MDT (9/9) 9:47 PM MDT (9/9)
Length of Visible Light 14h 04m
Length of Day
12h 58m
Waxing Crescent, 19% of the Moon is Illuminated
Sep 9
Waxing Crescent
Sep 12
First Quarter
Sep 19
Full
Sep 26
Last Quarter
Oct 4
New

Hourly Weather History & Observations

Time (MDT) Temp. Dew Point Humidity Pressure Visibility Wind Dir Wind Speed Gust Speed Precip Events Conditions
12:00 AM 55.4 °F 49.6 °F 81% 29.86 in - NNW 5.8 mph - N/A   Unknown
1:00 AM 53.8 °F 48.2 °F 81% 29.87 in - North 3.5 mph - N/A   Unknown
2:00 AM 56.1 °F 50.7 °F 82% 29.84 in - North 3.5 mph - N/A   Unknown
3:00 AM 56.7 °F 51.1 °F 82% 29.83 in - NE 1.2 mph - N/A   Unknown
4:00 AM 56.8 °F 50.7 °F 80% 29.83 in - NNW 4.6 mph - N/A   Unknown
5:00 AM 57.2 °F 49.5 °F 75% 29.84 in - North 4.6 mph - N/A   Unknown
6:00 AM 52 °F 48 °F 82% 29.88 in - North 2.3 mph - -  
6:00 AM 51.8 °F 48.0 °F 87% 29.88 in - North 2.3 mph - N/A   Unknown
7:00 AM 56.1 °F 49.5 °F 78% 29.92 in - North 9.2 mph - N/A   Unknown
8:00 AM 59.9 °F 50.2 °F 70% 29.94 in - NNW 12.7 mph - N/A   Unknown
9:00 AM 62.8 °F 48.9 °F 61% 29.95 in - NNW 17.3 mph 25.3 mph N/A   Unknown
10:00 AM 67.1 °F 46.6 °F 48% 29.95 in - NNW 17.3 mph 26.5 mph N/A   Unknown
11:00 AM 69.1 °F 46.4 °F 44% 29.96 in - NNW 10.4 mph 18.4 mph N/A   Unknown
12:00 PM 71 °F 46 °F 29% 29.96 in - North 8.1 mph - -  
12:00 PM 71.1 °F 45.5 °F 40% 29.96 in - North 8.1 mph - N/A   Unknown
1:00 PM 73.2 °F 47.1 °F 39% 29.95 in - NNW 6.9 mph - N/A   Unknown
2:00 PM 74.8 °F 42.8 °F 32% 29.93 in - East 2.3 mph - N/A   Unknown
3:00 PM 75.6 °F 49.1 °F 39% 29.91 in - SSW 6.9 mph - N/A   Unknown
4:00 PM 77.0 °F 47.8 °F 36% 29.88 in - SSE 12.7 mph - N/A   Unknown
5:00 PM 76.8 °F 46.0 °F 34% 29.88 in - WSW 11.5 mph - N/A   Unknown
6:00 PM 74 °F 51 °F 33% 29.88 in - WNW 5.8 mph - -  
6:00 PM 73.9 °F 50.9 °F 44% 29.88 in - WNW 5.8 mph - N/A   Unknown
7:00 PM 73.0 °F 52.3 °F 48% 29.89 in - NW 5.8 mph - N/A   Unknown
8:00 PM 65.1 °F 53.1 °F 65% 29.91 in - NNW 4.6 mph - N/A   Unknown
9:00 PM 57.9 °F 50.7 °F 77% 29.93 in - West 2.3 mph - N/A   Unknown
10:00 PM 59.0 °F 50.0 °F 72% 29.93 in - NW 3.5 mph - N/A   Unknown
11:00 PM 56.7 °F 48.7 °F 75% 29.94 in - NNE 2.3 mph - N/A   Unknown